CPT975 PHMK-PHNL

Flight info

Callsign CPT975
Flight time 0h 24m
Altitude 6000
Route MKK V8 HNL
Aircraft C208/L-SDF/C

Departure

Time 2026-04-24 00:54
Airport Molokai Airport (PHMK)

Arrival

Time 2026-04-24 01:18
Airport Daniel K. Inouye International Airport (PHNL)
Time Latitude Longitude Altitude Speed Heading
2026-04-24 00:44 21.15555 -157.09250 462 ft 0 kts 59°
2026-04-24 00:50 21.15542 -157.09235 462 ft 9 kts 161°
2026-04-24 00:50 21.15521 -157.09229 462 ft 7 kts 193°
2026-04-24 00:50 21.15456 -157.09333 462 ft 26 kts 240°
2026-04-24 00:51 21.15341 -157.09551 462 ft 41 kts 239°
2026-04-24 00:51 21.15217 -157.09783 461 ft 30 kts 241°
2026-04-24 00:51 21.15111 -157.09983 461 ft 34 kts 240°
2026-04-24 00:51 21.15024 -157.10126 462 ft 7 kts 179°
2026-04-24 00:52 21.15022 -157.10126 462 ft 0 kts 169°
2026-04-24 00:52 21.15021 -157.10126 462 ft 0 kts 165°
2026-04-24 00:53 21.14981 -157.10100 463 ft 14 kts 127°
2026-04-24 00:53 21.15050 -157.09947 462 ft 43 kts 59°
2026-04-24 00:53 21.15275 -157.09513 489 ft 84 kts 61°
2026-04-24 00:53 21.15571 -157.08936 710 ft 93 kts 62°
2026-04-24 00:54 21.15885 -157.08363 1044 ft 85 kts 55°
2026-04-24 00:54 21.16438 -157.08218 1294 ft 99 kts 341°
2026-04-24 00:54 21.16876 -157.08873 1444 ft 121 kts 298°
2026-04-24 00:54 21.17249 -157.09727 1596 ft 132 kts 301°
2026-04-24 00:55 21.17654 -157.10623 1742 ft 138 kts 301°
2026-04-24 00:55 21.18080 -157.11581 1886 ft 146 kts 301°
2026-04-24 00:55 21.18524 -157.12568 2029 ft 149 kts 300°
2026-04-24 00:55 21.18981 -157.13595 2162 ft 157 kts 294°
2026-04-24 00:56 21.18977 -157.14781 2279 ft 167 kts 251°
2026-04-24 00:56 21.18433 -157.15869 2407 ft 164 kts 240°
2026-04-24 00:56 21.17859 -157.16929 2524 ft 164 kts 241°
2026-04-24 00:56 21.17288 -157.17987 2661 ft 164 kts 241°
2026-04-24 00:57 21.16721 -157.19031 2828 ft 160 kts 240°
2026-04-24 00:57 21.16169 -157.20036 2997 ft 155 kts 241°
2026-04-24 00:57 21.15117 -157.21992 3333 ft 150 kts 240°
2026-04-24 00:58 21.14596 -157.22957 3506 ft 149 kts 241°
2026-04-24 00:58 21.14259 -157.23996 3682 ft 149 kts 256°
2026-04-24 00:58 21.13978 -157.25064 3854 ft 148 kts 261°
2026-04-24 00:58 21.13850 -157.26151 4028 ft 146 kts 264°
2026-04-24 00:59 21.13689 -157.27224 4204 ft 146 kts 262°
2026-04-24 00:59 21.13509 -157.28300 4381 ft 147 kts 261°
2026-04-24 00:59 21.13323 -157.29379 4550 ft 147 kts 261°
2026-04-24 00:59 21.13133 -157.30456 4723 ft 147 kts 261°
2026-04-24 01:00 21.12946 -157.31524 4897 ft 146 kts 261°
2026-04-24 01:00 21.12758 -157.32596 5070 ft 146 kts 261°
2026-04-24 01:00 21.12573 -157.33663 5244 ft 145 kts 261°
2026-04-24 01:00 21.12400 -157.34727 5418 ft 145 kts 266°
2026-04-24 01:01 21.12325 -157.35799 5595 ft 144 kts 266°
2026-04-24 01:01 21.12237 -157.36873 5768 ft 144 kts 266°
2026-04-24 01:01 21.12149 -157.37945 5942 ft 145 kts 266°
2026-04-24 01:01 21.12063 -157.39002 6114 ft 144 kts 266°
2026-04-24 01:02 21.11976 -157.40071 6288 ft 144 kts 266°
2026-04-24 01:02 21.11891 -157.41136 6462 ft 144 kts 266°
2026-04-24 01:02 21.11805 -157.42202 6637 ft 143 kts 266°
2026-04-24 01:02 21.11719 -157.43265 6812 ft 143 kts 266°
2026-04-24 01:03 21.11634 -157.44327 6986 ft 143 kts 266°
2026-04-24 01:03 21.11547 -157.45387 7159 ft 143 kts 266°
2026-04-24 01:03 21.11462 -157.46446 7335 ft 142 kts 266°
2026-04-24 01:03 21.11376 -157.47500 7509 ft 142 kts 266°
2026-04-24 01:04 21.11290 -157.48555 7683 ft 142 kts 266°
2026-04-24 01:04 21.11204 -157.49610 7856 ft 142 kts 266°
2026-04-24 01:04 21.11119 -157.50655 8028 ft 142 kts 266°
2026-04-24 01:04 21.11036 -157.51710 8198 ft 142 kts 266°
2026-04-24 01:05 21.10950 -157.52762 8379 ft 141 kts 265°
2026-04-24 01:05 21.10864 -157.53811 8547 ft 142 kts 265°
2026-04-24 01:05 21.10777 -157.54887 8568 ft 152 kts 266°
2026-04-24 01:05 21.10687 -157.56068 8453 ft 165 kts 266°
2026-04-24 01:06 21.10588 -157.57317 8343 ft 171 kts 266°
2026-04-24 01:06 21.10743 -157.58576 8229 ft 174 kts 289°
2026-04-24 01:06 21.11158 -157.59800 8113 ft 176 kts 291°
2026-04-24 01:06 21.11579 -157.61034 7993 ft 177 kts 291°
2026-04-24 01:07 21.11998 -157.62261 7871 ft 177 kts 291°
2026-04-24 01:07 21.12427 -157.63524 7611 ft 184 kts 291°
2026-04-24 01:07 21.12853 -157.64799 7280 ft 169 kts 290°
2026-04-24 01:07 21.13201 -157.65900 6935 ft 147 kts 289°
2026-04-24 01:08 21.13521 -157.66930 6558 ft 145 kts 289°
2026-04-24 01:08 21.13843 -157.67956 6175 ft 146 kts 289°
2026-04-24 01:08 21.14162 -157.68980 5797 ft 144 kts 290°
2026-04-24 01:08 21.14479 -157.70000 5421 ft 144 kts 290°
2026-04-24 01:09 21.14792 -157.71021 5046 ft 144 kts 289°
2026-04-24 01:09 21.15102 -157.72039 4672 ft 144 kts 290°
2026-04-24 01:09 21.15408 -157.73058 4297 ft 143 kts 290°
2026-04-24 01:09 21.15708 -157.74076 3924 ft 143 kts 290°
2026-04-24 01:10 21.16006 -157.75097 3551 ft 144 kts 290°
2026-04-24 01:10 21.16295 -157.76110 3182 ft 144 kts 290°
2026-04-24 01:10 21.16587 -157.77137 2820 ft 144 kts 290°
2026-04-24 01:10 21.16839 -157.78067 2881 ft 119 kts 289°
2026-04-24 01:11 21.16983 -157.78611 2892 ft 111 kts 289°
2026-04-24 01:11 21.17207 -157.79452 2975 ft 124 kts 290°
2026-04-24 01:11 21.17467 -157.80377 3035 ft 135 kts 290°
2026-04-24 01:11 21.17757 -157.81373 3040 ft 144 kts 290°
2026-04-24 01:12 21.18061 -157.82413 3039 ft 149 kts 290°
2026-04-24 01:12 21.18374 -157.83474 3038 ft 151 kts 290°
2026-04-24 01:12 21.18692 -157.84560 3038 ft 153 kts 290°
2026-04-24 01:12 21.19010 -157.85647 3039 ft 154 kts 290°
2026-04-24 01:13 21.19330 -157.86738 3038 ft 153 kts 290°
2026-04-24 01:13 21.19648 -157.87828 3037 ft 154 kts 290°
2026-04-24 01:13 21.19967 -157.88923 3036 ft 154 kts 290°
2026-04-24 01:13 21.20289 -157.90016 3036 ft 154 kts 290°
2026-04-24 01:14 21.20614 -157.91117 3035 ft 154 kts 290°
2026-04-24 01:14 21.21015 -157.92169 3023 ft 152 kts 306°
2026-04-24 01:14 21.21630 -157.93112 2927 ft 156 kts 308°
2026-04-24 01:14 21.22260 -157.94070 2831 ft 158 kts 308°
2026-04-24 01:15 21.22996 -157.94934 2734 ft 157 kts 321°
2026-04-24 01:15 21.23852 -157.95665 2589 ft 159 kts 331°
2026-04-24 01:15 21.24846 -157.96202 2422 ft 159 kts 342°
2026-04-24 01:15 21.25862 -157.96513 2206 ft 145 kts 355°
2026-04-24 01:16 21.26801 -157.96462 1978 ft 131 kts 16°
2026-04-24 01:16 21.27668 -157.96134 1663 ft 133 kts 27°
2026-04-24 01:16 21.28500 -157.95661 1270 ft 139 kts 33°
2026-04-24 01:16 21.29297 -157.95131 1056 ft 131 kts 38°
2026-04-24 01:17 21.29980 -157.94554 876 ft 117 kts 45°
2026-04-24 01:17 21.30540 -157.93929 590 ft 116 kts 52°
2026-04-24 01:17 21.31021 -157.93260 248 ft 110 kts 56°
2026-04-24 01:17 21.31452 -157.92634 48 ft 97 kts 56°
2026-04-24 01:18 21.31817 -157.92115 25 ft 75 kts 53°
2026-04-24 01:18 21.31975 -157.91876 23 ft 10 kts 147°
2026-04-24 01:18 21.31898 -157.91848 25 ft 15 kts 148°
2026-04-24 01:18 21.31814 -157.91825 23 ft 8 kts 201°
2026-04-24 01:19 21.31769 -157.91826 23 ft 7 kts 172°
2026-04-24 01:19 21.31739 -157.91781 23 ft 11 kts 57°
2026-04-24 01:19 21.31766 -157.91771 23 ft 3 kts 317°
2026-04-24 01:19 21.31767 -157.91772 23 ft 0 kts 317°